CDT,Max TemperatureF,Mean TemperatureF,Min TemperatureF,Max Dew PointF,MeanDew PointF,Min DewpointF,Max Humidity, Mean Humidity, Min Humidity, Max Sea Level PressureIn, Mean Sea Level PressureIn, Min Sea Level PressureIn, Max VisibilityMiles, Mean VisibilityMiles, Min VisibilityMiles, Max Wind SpeedMPH, Mean Wind SpeedMPH, Max Gust SpeedMPH,PrecipitationIn, CloudCover, Events, WindDirDegrees
2012-9-1,84,70,55,64,54,46,72,61,45,30.09,30.03,29.96,10,10,10,0,0,,0.00,0,,-1
2012-9-2,87,74,60,63,57,50,77,56,40,29.98,29.91,29.82,10,10,10,,,,0.00,0,,-1
2012-9-3,87,74,60,61,58,45,82,58,22,29.95,29.90,29.84,10,10,10,,,,0.00,0,,-1
2012-9-4,89,76,62,63,54,46,72,49,22,29.94,29.83,29.70,10,10,8,36,26,60,0.02,1,Thunderstorm,12
2012-9-5,78,66,53,52,47,39,82,56,26,29.94,29.87,29.76,10,10,8,16,8,91,0.00,0,,330
2012-9-6,80,64,48,48,43,39,76,48,26,29.98,29.91,29.81,10,10,10,15,6,23,0.00,1,,170
2012-9-7,66,57,48,50,43,37,77,57,35,30.08,29.98,29.81,10,10,10,21,11,26,0.00,4,,345
2012-9-8,82,62,42,43,38,36,76,48,21,30.08,30.01,29.88,10,10,10,29,12,40,0.00,0,,296
2012-9-9,73,58,42,46,41,37,81,57,31,30.22,30.13,30.07,10,10,10,9,6,,0.00,0,,298
2012-9-10,82,68,55,46,44,41,63,44,26,30.06,29.92,29.79,10,10,10,25,13,36,0.00,0,,185
2012-9-11,93,78,64,48,46,45,52,36,20,29.89,29.77,29.74,10,10,10,28,17,34,0.00,0,,197
2012-9-12,66,60,53,48,42,34,82,61,32,30.25,30.13,29.89,10,10,4,17,9,25,0.04,4,,356
2012-9-13,73,58,44,46,40,34,82,53,27,30.35,30.28,30.25,10,10,10,15,5,21,0.00,2,,252
2012-9-14,78,61,44,43,39,36,76,44,21,30.28,30.24,30.18,10,10,8,13,9,20,0.00,0,,164
2012-9-15,80,66,53,43,38,34,58,37,20,30.18,30.09,29.98,10,10,10,22,13,29,0.00,0,,203
2012-9-16,78,68,57,54,48,37,82,54,32,29.98,29.93,29.87,10,10,8,18,12,25,0.00,0,,229
2012-9-17,62,53,42,43,37,30,82,59,31,30.04,30.00,29.92,10,10,10,17,12,26,0.05,3,,343
2012-9-18,60,48,35,34,30,27,76,50,27,30.07,29.99,29.82,10,10,10,14,7,23,0.00,2,,288
2012-9-19,73,60,46,41,33,21,62,38,18,29.94,29.79,29.68,10,10,10,30,15,39,0.00,0,,265
2012-9-20,64,53,42,32,27,25,53,38,24,30.00,29.94,29.87,10,10,9,21,9,28,0.00,1,,275
2012-9-21,69,58,48,36,32,30,54,41,24,29.95,29.85,29.81,10,10,10,25,6,36,0.00,3,,341
2012-9-22,55,44,33,32,23,16,65,45,26,30.26,30.18,29.97,10,10,10,21,14,30,0.00,1,,336
2012-9-23,60,44,28,27,21,19,69,43,20,30.33,30.25,30.14,10,10,9,8,4,,0.00,0,,283
2012-9-24,78,61,44,36,31,21,51,35,21,30.13,29.92,29.79,10,10,10,22,10,31,0.00,0,,221
2012-9-25,71,56,42,37,34,28,70,43,23,29.95,29.86,29.80,10,10,10,13,8,16,0.00,0,,352
2012-9-26,64,50,35,32,27,23,70,43,24,30.19,30.08,29.95,10,10,7,15,8,17,0.00,0,,356
2012-9-27,69,50,30,34,27,21,70,44,21,30.23,30.17,30.13,10,9,3,8,3,,0.00,0,,35
2012-9-28,75,57,39,39,31,27,70,44,19,30.23,30.15,30.11,10,10,7,7,1,,0.00,0,,171
2012-9-29,80,64,48,37,33,27,58,35,20,30.16,30.09,30.02,10,9,2,9,6,,0.00,0,,227
2012-9-30,78,64,50,37,35,32,50,35,21,30.02,29.95,29.89,10,10,7,9,6,,0.00,0,,245